CAPE
3 2 2 2 2 2 1 2 0 0 0 0 0 0 0 0 0 0 0 0 0 0 0 0 0 0 0 0 0 0 0 0 0 0 0 0 0 0 0 0 0 0 39 20 8
4 3 2 2 2 1 1 1 1 1 0 1 0 0 0 0 0 0 0 0 0 0 0 0 0 0 0 0 0 0 0 0 0 0 0 0 0 0 0 0 0 0 0 0 46
3 2 2 1 1 1 0 0 0 1 2 2 1 0 0 0 0 0 0 0 0 0 0 0 0 0 0 0 0 0 0 0 0 0 0 0 0 0 0 0 0 0 1 0 0
3 3 1 1 1 0 0 0 0 0 0 0 0 0 0 0 0 0 0 0 0 0 0 0 0 0 0 0 0 0 0 0 0 0 0 0 0 0 0 0 0 0 37 12 0
4 3 2 1 1 0 0 0 0 0 0 0 0 0 0 0 0 0 0 0 0 0 0 0 0 0 0 0 0 0 0 0 0 0 0 0 0 0 0 0 0 0 14 0 0
4 2 2 1 1 0 0 0 0 0 0 0 0 0 0 0 0 0 0 0 0 0 0 0 0 0 0 0 0 0 0 0 0 0 0 0 0 0 0 0 0 0 0 0 0
1 2 1 0 0 0 0 0 0 0 0 0 0 0 0 0 0 0 0 0 0 0 0 0 0 0 0 0 0 0 0 0 0 0 0 0 0 0 0 0 0 0 0 0 0
1 2 1 0 0 0 0 0 0 0 0 0 0 0 0 0 0 0 0 0 0 0 0 0 0 0 0 0 0 0 0 0 0 0 0 0 0 0 0 0 0 0 0 0 0
0 0 1 0 0 0 0 0 0 0 0 0 0 0 0 0 0 0 0 0 0 0 0 0 0 0 0 0 0 0 0 0 0 0 0 0 0 0 0 0 0 0 0 0 0
1 1 0 0 0 0 0 0 0 0 0 0 0 0 0 0 0 0 0 0 0 0 0 0 0 0 0 0 0 0 0 0 0 0 0 0 0 0 0 0 0 0 0 0 0
1 2 1 1 0 0 0 0 0 0 0 0 0 0 0 0 0 0 0 0 0 0 0 0 0 0 0 0 0 0 0 0 0 0 0 0 0 0 0 0 0 0 0 0 0
3 3 2 1 0 0 0 0 0 0 0 0 0 0 0 0 0 0 0 0 0 0 0 0 0 0 0 0 0 0 0 0 0 0 0 0 0 0 0 0 0 0 0 0 0
2 2 0 1 0 0 0 0 0 0 0 0 0 0 0 0 0 0 0 0 0 0 0 0 0 0 0 0 0 0 0 0 0 0 0 0 0 0 0 0 0 0 0 0 0
1 1 0 0 0 0 0 0 0 0 0 0 0 0 0 0 0 0 0 0 0 0 0 0 0 0 0 0 0 0 0 0 0 0 0 0 0 0 0 0 0 0 0 0 0
0 0 0 0 0 0 0 0 0 0 0 0 0 0 0 0 0 0 0 0 0 0 0 0 0 1 4 1 0 3 1 0 0 0 0 0 0 0 0 0 0 0 0 0 0
0 0 0 0 0 0 0 0 0 0 0 0 0 0 0 0 0 0 0 0 0 0 12 21 28 31 20 14 13 36 44 26 3 0 1 0 0 0 0 0 0 0 0 0 0
0 0 0 0 0 0 0 0 0 1 0 0 0 0 0 0 0 0 0 0 12 17 42 17 17 5 8 49 80 98 102 43 18 17 0 0 1 0 0 0 0 0 0 0 0
0 0 0 0 0 0 0 3 4 0 0 0 0 0 0 0 0 1 5 21 22 58 61 40 13 34 20 36 64 7 16 51 29 33 21 1 1 1 0 0 0 0 0 0 0
0 0 0 1 0 0 0 3 2 0 0 0 0 0 0 2 14 6 31 19 22 45 49 40 27 19 13 114 56 68 34 126 49 6 0 0 1 2 2 1 0 0 0 0 0
0 0 4 0 0 0 3 0 0 0 0 0 0 0 2 6 1 14 24 14 10 45 106 100 18 66 54 171 136 85 132 72 47 4 2 3 3 14 0 0 0 0 0 0 0
0 0 0 0 0 1 0 0 0 0 0 0 0 0 10 6 6 10 14 15 12 56 81 77 56 36 53 109 146 11 56 40 114 50 6 0 15 2 1 0 0 1 0 0 0
0 0 0 0 0 0 0 0 0 0 0 0 0 1 4 8 9 13 19 22 21 57 41 51 60 18 64 51 36 132 254 82 46 46 0 1 0 0 0 2 0 28 1 0 0
0 0 0 0 0 0 0 0 0 0 1 0 0 1 9 7 10 20 16 16 28 21 15 27 36 15 3 51 27 51 118 127 117 79 10 2 0 0 39 21 17 13 0 0 0
0 0 0 0 0 0 0 0 0 0 0 0 0 2 1 10 9 8 10 8 17 16 12 11 12 6 12 27 0 4 74 87 58 0 0 0 0 0 0 9 4 3 0 0 0
6 1 0 0 0 0 4 2 0 0 3 5 2 6 5 1 1 0 3 5 14 11 8 13 20 28 42 46 27 30 32 56 65 52 18 8 0 0 0 0 0 0 0 0 0
3 0 0 0 0 0 0 0 0 0 0 0 6 3 5 1 4 1 4 2 5 8 10 13 4 19 7 3 21 20 55 37 22 29 0 15 0 0 0 0 0 0 0 0 0
1 4 5 0 0 0 0 1 1 5 0 0 2 3 3 4 2 2 2 6 7 3 12 8 14 10 0 2 1 0 10 55 61 72 33 0 0 1 2 0 1 0 0 0 0
CIN
0 -0 -0 -0 0 -0 0 0 0 0 0 0 0 0 0 0 0 0 0 0 0 0 0 0 0 0 0 0 0 0 0 0 0 0 0 0 0 0 0 0 0 0 -10 -28 -36
-0 -0 -0 0 -0 -0 -0 0 0 0 0 0 0 0 0 0 0 0 0 0 0 0 0 0 0 0 0 0 0 0 0 0 0 0 0 0 0 0 0 0 0 0 0 0 -49
-0 -0 -0 0 -0 0 0 0 0 0 0 0 0 0 0 0 0 0 0 0 0 0 0 0 0 0 0 0 0 0 0 0 0 0 0 0 0 0 0 0 0 -1 -11 0 -8
0 0 0 -0 0 -0 0 0 0 0 0 0 0 0 0 0 0 0 0 0 0 0 0 0 0 0 0 0 0 0 0 0 0 0 0 0 0 0 0 0 0 -0 -14 -29 0
-0 -0 -0 0 -0 0 0 0 0 0 0 0 0 0 0 0 0 0 0 0 0 0 0 0 0 0 0 0 0 0 0 0 0 0 0 0 0 0 0 0 0 0 -10 0 0
-0 -0 -0 -0 0 0 0 0 0 0 0 0 0 0 0 0 0 0 0 0 0 0 0 0 0 0 0 0 0 0 0 0 0 0 0 0 0 0 0 0 0 0 0 0 0
0 -0 -0 -0 0 0 0 0 0 0 0 0 0 0 0 0 0 0 0 0 0 0 0 0 0 0 0 0 0 0 0 0 0 0 0 0 0 0 0 0 0 0 0 0 0
0 -0 0 0 0 0 0 0 0 0 0 0 0 0 0 0 0 0 0 0 0 0 0 0 0 0 0 0 0 0 0 0 0 0 0 0 0 0 0 0 0 0 0 0 0
0 0 0 -0 0 0 0 0 0 0 0 0 0 0 0 0 0 0 0 0 0 0 0 0 0 0 0 0 0 0 0 0 0 0 0 0 0 0 0 0 0 0 0 0 0
-0 0 0 0 0 0 0 0 0 0 0 0 0 0 0 0 0 0 0 0 0 0 0 0 0 0 0 0 0 0 0 0 0 0 0 0 0 0 0 0 0 0 0 0 0
0 0 0 0 0 0 0 0 0 0 0 0 0 0 0 0 0 0 0 0 0 0 0 0 0 0 0 0 0 0 0 0 0 0 0 0 0 0 0 0 0 0 0 0 0
0 0 0 0 0 0 0 0 0 0 0 0 0 0 0 0 0 0 0 0 0 0 0 0 0 0 0 0 0 0 0 0 0 0 0 0 0 0 0 0 0 0 0 0 0
0 -0 0 0 0 0 0 0 0 0 0 0 0 0 0 0 0 0 0 0 0 0 0 0 0 0 0 0 0 0 0 0 0 0 0 0 0 0 0 0 0 0 0 0 0
0 0 0 0 0 0 0 0 0 0 0 0 0 0 0 0 0 0 0 0 0 0 0 0 0 0 0 0 0 0 0 0 0 0 0 0 0 0 0 0 0 0 0 0 0
0 0 0 0 0 0 0 0 0 0 0 0 0 0 0 0 0 0 0 0 0 0 0 -0 -0 -9 -10 -10 -1 -8 -9 -5 0 0 0 0 0 0 0 0 0 0 0 0 0
0 0 0 0 0 0 0 0 0 -1 -0 0 0 0 0 0 0 0 0 0 0 -4 -13 -10 -23 -9 -8 -15 -11 -12 -7 -6 -10 -0 -3 0 0 0 0 0 0 0 0 0 0
0 0 0 0 -0 0 0 0 -4 -3 0 0 0 0 0 0 0 0 0 -1 -3 -4 -8 -6 -11 -15 -25 -3 -9 -6 -10 -7 -9 -8 0 0 -7 0 0 0 0 0 0 0 0
0 0 0 0 0 0 0 -8 -2 0 0 0 0 0 -3 0 0 -2 -2 -4 -6 -6 -3 -6 -5 -42 -23 -3 -4 -41 -49 -9 -9 -13 -8 -6 -26 -2 0 -1 -1 0 0 0 0
0 0 0 -1 0 0 0 -4 -2 0 0 0 0 0 0 -3 -3 -4 -4 -4 -6 -8 -4 -6 -4 -10 -10 -14 -4 -22 -10 -6 -11 -9 -0 -1 -24 -20 -17 -17 0 0 0 0 0
0 0 -1 0 0 0 -4 0 0 0 0 0 0 -0 -3 -2 -2 -3 -3 -7 -5 -9 -6 -5 -5 -6 -7 -6 -9 -13 -7 -16 -9 -6 -5 -18 -75 -20 0 0 -2 0 0 0 0
0 0 0 0 0 -1 0 0 0 0 0 0 0 -1 -1 -1 -2 -3 -3 -7 -21 -7 -5 -4 -3 -11 -6 -9 -5 -67 -21 -18 -13 -18 -9 -4 -69 -8 -6 0 -0 -6 0 0 0
0 -1 0 0 0 0 0 0 0 0 -1 0 0 -2 -3 -2 -2 -2 -2 -8 -6 -5 -5 -3 -1 -5 -7 -10 -50 -3 -3 -28 -8 -6 -0 -13 0 0 0 -3 0 -6 -2 0 0
0 0 0 0 0 0 0 0 0 0 -1 0 0 -1 -1 -2 -4 -1 -3 -3 -5 -7 -1 -3 -3 -1 -8 -26 -21 -7 -26 -6 -3 -11 -30 -5 0 0 -18 -9 -5 -5 -1 0 0
0 0 0 0 0 0 -0 0 0 0 0 -1 0 -2 -2 -1 -4 -5 -3 -6 -4 -4 -2 -2 -1 -3 -1 -7 -15 -23 -11 -7 -13 0 -3 0 0 0 0 -15 -6 -6 -3 0 0
-1 -1 0 0 0 0 -1 -2 0 -0 -1 -2 -2 -2 -2 -1 -1 -0 -4 -3 -3 -2 -2 -8 -28 -8 -11 -4 -13 -32 -7 -6 -7 -7 -7 -10 0 0 0 0 -11 0 0 0 0
-1 -1 0 0 0 0 -4 -0 0 0 0 0 -3 -2 -3 -1 -1 -1 -1 -2 -1 -1 -8 -3 -1 -23 -55 -2 -4 -7 -10 -4 -3 -5 0 -6 0 0 -0 -6 -12 0 0 0 0
-0 -1 -0 0 0 0 0 -2 -2 -1 0 0 -2 -2 -2 -4 -3 -3 -3 -2 -2 -2 -0 0 -0 -2 -1 -7 -23 0 -27 -4 -5 -5 -7 0 0 -13 -17 0 -9 0 0 0 0
Wind_Speed
27 28 28 28 27 28 28 28 28 28 29 30 31 31 31 32 33 33 28 24 26 28 30 31 30 30 28 32 37 33 42 45 40 39 37 30 34 33 30 30 30 22 23 18 11
28 27 27 28 27 27 27 26 27 27 28 29 30 30 30 30 31 26 18 20 23 26 27 28 30 28 33 32 34 32 46 47 41 39 36 34 34 33 30 27 29 21 20 15 11
28 28 28 28 27 27 26 26 27 28 28 29 29 29 29 28 25 17 14 21 26 28 30 28 30 31 35 36 34 35 58 42 43 40 40 40 39 35 37 31 28 27 19 15 14
28 28 28 28 27 27 27 27 27 28 28 27 27 27 27 22 21 17 17 23 26 26 26 27 26 31 37 39 36 44 48 49 53 49 41 40 41 43 42 39 34 26 21 12 16
27 27 27 27 27 27 27 27 28 28 28 27 27 26 22 17 19 17 21 22 25 23 24 26 29 29 39 37 38 48 52 51 52 49 47 49 47 47 45 43 40 37 28 24 22
28 28 28 28 28 28 28 28 29 29 29 27 26 23 20 19 20 21 23 24 22 26 25 25 28 30 40 40 40 43 49 56 52 54 50 48 56 44 52 44 44 41 40 33 31
29 29 30 29 29 29 29 30 31 30 28 23 22 19 22 19 20 23 23 24 23 24 25 26 27 30 30 35 40 46 53 52 54 51 54 47 54 55 57 47 45 44 39 38 39
28 29 30 30 30 30 30 31 31 28 22 18 18 19 21 17 22 23 25 26 21 23 26 27 28 33 35 37 44 42 43 54 56 45 47 40 62 65 53 50 50 46 43 39 38
26 29 30 31 31 31 31 32 28 20 18 17 17 17 16 16 23 28 26 26 28 27 23 25 29 32 31 34 42 42 54 52 55 43 45 43 62 61 58 55 50 49 47 44 43
22 21 22 24 25 26 27 23 18 16 15 14 18 18 15 23 28 29 23 27 29 29 30 24 28 32 31 32 47 45 48 53 58 50 40 44 59 61 55 52 52 57 50 44 42
19 17 16 16 17 17 25 17 20 17 16 26 25 23 22 26 27 26 23 27 26 28 32 28 33 33 35 36 42 47 52 59 55 47 45 52 51 63 54 49 52 53 47 52 46
24 20 15 9 8 9 5 23 22 23 27 23 16 16 19 22 25 27 22 31 29 34 35 34 33 32 34 35 40 46 51 55 55 53 47 49 54 62 52 51 48 50 54 48 44
27 25 17 6 2 8 15 19 18 21 19 18 11 17 20 19 28 29 26 29 31 36 35 37 39 37 37 38 40 41 46 52 56 50 49 52 60 59 57 50 46 49 50 53 52
28 26 13 2 15 18 16 19 15 18 18 14 15 17 18 24 26 22 23 25 31 36 37 39 37 38 38 40 40 48 42 46 48 53 58 52 67 53 52 53 50 49 46 46 46
31 28 7 12 17 17 20 16 16 14 21 16 17 19 18 21 28 20 18 26 32 38 35 41 38 37 38 41 40 46 42 46 48 52 56 58 61 60 43 49 46 46 48 48 46
33 26 17 16 13 19 16 18 14 16 20 18 18 19 24 26 22 21 23 23 24 26 30 35 32 31 33 39 38 41 44 49 49 51 61 58 61 61 52 43 37 39 40 40 39
35 26 14 15 19 18 15 14 17 21 19 20 25 24 25 23 26 22 29 28 29 34 33 35 32 23 26 32 32 33 40 45 48 51 60 53 61 56 50 49 47 39 41 34 29
32 20 13 14 16 17 14 13 20 22 23 25 24 22 18 23 23 22 26 27 26 23 31 32 33 22 23 29 35 42 35 39 45 45 46 47 61 54 48 40 22 22 23 28 26
23 14 12 17 16 15 13 19 21 24 23 25 25 23 22 21 24 23 22 24 21 22 26 30 29 38 40 27 28 36 27 13 39 46 47 41 47 51 40 37 42 40 30 24 24
21 13 15 18 15 13 13 17 18 20 20 21 24 21 25 24 25 21 22 21 19 20 23 32 41 36 36 31 31 8 18 25 26 40 43 39 41 45 47 41 32 25 18 20 23
16 15 18 19 15 11 18 19 20 19 19 20 22 20 19 21 18 19 18 22 19 25 32 34 31 35 33 32 35 13 6 8 27 30 33 35 33 24 24 40 29 17 15 16 21
16 15 18 20 15 17 18 22 20 16 15 14 15 16 16 18 17 15 15 17 20 18 16 24 30 26 21 31 22 2 16 4 24 33 40 39 36 31 34 22 35 16 17 19 23
16 12 17 17 19 20 20 20 16 16 17 16 14 13 13 14 15 11 4 4 3 6 4 23 12 30 19 19 18 21 30 1 29 33 40 32 32 24 7 7 13 16 17 22 24
16 16 16 16 17 19 23 20 18 17 15 13 11 9 14 13 6 4 15 1 1 8 10 10 12 12 24 33 25 25 27 27 29 33 41 42 35 30 25 7 16 20 23 25 26
16 18 15 16 15 14 14 15 16 17 15 14 13 13 13 14 8 9 8 18 14 9 4 6 8 12 15 32 36 35 33 31 35 36 42 41 38 34 33 31 27 25 26 28 25
18 18 16 10 12 13 15 16 18 16 17 12 8 11 9 6 1 14 20 15 7 5 4 6 13 12 16 14 17 25 36 37 36 38 43 44 45 40 36 38 37 33 32 29 27
18 16 17 15 15 15 14 14 17 19 16 12 13 8 5 4 26 21 23 21 10 3 6 8 13 14 12 11 21 18 11 17 31 37 40 47 44 40 37 36 34 33 32 30 28
Wind_Direction
320 317 315 308 305 304 300 297 294 292 293 293 292 293 294 292 284 279 284 292 290 291 284 279 275 273 268 265 259 264 263 263 266 266 269 272 270 268 271 268 268 273 267 283 292
322 319 315 315 313 309 305 302 301 299 296 295 294 295 295 297 291 290 308 303 299 293 284 277 273 271 265 266 260 257 259 260 265 267 272 269 268 268 265 265 261 262 276 289 283
323 320 319 317 315 312 309 307 308 305 304 302 299 296 295 300 296 308 322 309 298 290 284 282 277 271 265 263 260 258 254 266 265 267 269 264 264 267 263 264 258 263 264 272 282
321 319 317 316 315 313 311 308 307 306 307 308 310 308 302 303 298 322 329 311 300 293 289 283 279 271 266 263 263 263 263 263 261 264 271 266 263 263 262 262 262 265 263 254 269
316 314 312 311 309 307 305 303 303 302 303 305 309 313 311 320 320 337 322 317 307 306 297 287 280 277 268 269 268 262 262 263 262 264 265 264 260 261 262 260 261 260 265 262 271
318 316 313 310 310 306 307 304 306 306 308 311 315 315 318 308 326 326 320 316 312 304 300 295 286 281 275 272 268 270 268 263 263 261 263 264 258 263 257 260 260 260 262 265 264
315 314 314 313 311 308 307 308 307 305 313 328 333 326 314 323 330 325 321 319 318 311 302 298 296 283 284 280 275 271 268 268 263 262 261 265 262 255 254 260 260 261 262 264 263
311 309 309 309 307 303 303 303 302 311 329 341 341 325 317 342 334 331 324 318 324 317 305 301 298 288 280 279 276 277 272 266 262 266 265 264 261 254 258 258 260 261 263 263 259
304 305 306 305 305 303 301 303 316 346 346 345 342 333 326 347 330 325 326 321 317 316 315 307 298 291 286 278 275 271 267 267 268 266 266 261 261 256 257 258 262 261 260 261 260
297 293 287 287 284 284 286 275 360 7 2 360 332 332 337 325 324 322 329 323 317 315 310 302 300 289 284 278 269 273 270 269 267 267 266 263 260 258 259 260 261 259 259 258 259
300 292 284 276 267 266 290 9 351 350 342 312 314 320 321 326 328 331 332 326 321 316 307 309 293 286 286 285 280 277 274 271 270 272 268 265 263 258 260 260 259 258 258 257 259
306 297 286 272 251 241 77 5 358 342 320 326 333 334 337 338 331 333 338 323 320 311 308 302 291 292 290 287 285 280 276 272 273 269 271 267 265 261 262 260 259 259 257 260 259
309 303 287 263 187 69 41 25 22 4 347 348 4 344 340 342 327 325 330 324 319 313 309 300 295 295 291 286 284 283 278 276 272 274 268 267 265 264 261 262 261 260 261 259 260
309 304 283 140 48 34 40 28 36 23 360 15 8 2 352 339 330 341 338 331 322 314 310 303 301 293 289 286 285 280 282 280 277 268 264 260 262 264 261 260 260 261 261 261 263
311 307 28 63 36 35 20 33 32 46 352 20 9 6 358 344 336 356 352 333 321 315 313 305 301 293 287 287 289 285 286 280 277 271 265 259 259 258 263 259 260 260 261 263 265
312 302 38 51 54 29 39 31 49 22 358 9 13 5 350 343 343 346 343 338 329 321 319 310 316 302 295 295 291 293 286 280 275 269 261 257 255 255 253 260 266 264 264 265 267
313 341 41 43 24 32 37 43 17 2 15 4 355 355 350 350 345 349 343 341 336 326 322 317 311 314 307 305 299 292 284 277 270 262 261 257 255 254 255 258 262 271 262 264 269
306 9 42 37 33 32 39 30 0 3 359 356 358 355 354 358 353 352 345 344 347 342 327 317 309 322 322 308 299 286 282 275 271 267 267 260 254 256 253 255 260 268 273 267 268
290 35 36 29 33 32 33 4 359 357 2 356 358 0 4 1 353 351 353 348 358 350 335 319 309 291 293 304 308 296 275 240 275 269 270 275 265 251 252 247 256 263 266 264 266
14 29 29 23 32 37 26 4 4 11 4 5 355 5 355 357 356 1 359 359 357 358 341 305 278 299 283 287 261 246 264 285 280 268 268 274 259 254 240 245 250 256 255 266 270
30 23 18 16 28 42 8 4 4 10 7 8 1 357 359 0 3 357 356 352 1 349 325 281 294 280 273 276 278 327 197 272 284 276 267 273 264 281 241 233 238 237 252 270 274
42 32 22 13 18 17 10 3 6 15 20 15 13 12 12 8 1 359 356 5 357 1 263 259 282 253 245 260 295 116 314 335 260 264 240 253 260 259 249 245 216 238 252 272 279
38 44 42 36 16 7 4 4 13 11 10 15 15 13 11 1 5 22 306 5 301 256 115 314 328 281 244 257 302 316 262 166 240 248 235 242 227 244 254 183 205 239 264 267 280
53 54 52 46 33 17 5 8 8 15 12 19 19 9 11 10 20 19 259 319 261 249 238 218 216 214 239 261 313 257 253 248 233 233 230 226 233 237 236 204 239 258 268 268 271
60 53 55 40 32 20 17 7 5 6 16 16 22 26 16 10 1 237 236 274 262 247 186 129 209 226 236 256 275 266 261 243 249 243 240 242 246 237 250 254 273 266 267 262 261
48 45 38 27 34 28 22 20 11 9 5 1 359 8 9 4 285 257 265 262 257 230 106 203 233 228 242 239 236 236 250 246 240 250 247 247 243 256 246 252 257 258 256 258 256
49 50 41 35 36 24 24 24 11 3 11 20 13 357 328 297 261 248 255 254 237 213 252 236 237 237 231 234 254 236 207 210 234 249 259 249 249 256 255 253 252 253 252 254 254